This demonstration page uses our WeatherBlox Daily Observations layout. Learn more.

Left ArrowRight Arrow

39.01783, -85.05884

Hourly Observations for March 17, 2015

Temp ( °F °C ) Dew Point ( °F °C ) Humidity (%) Winds ( mph kmh ) Pressure ( in mb ) Visibility ( mi km ) Precip ( " mm )
12:52 am 00:52 Mostly Clear 63 17.2 45 7.2 52 52 SW 12 19 29.88 1012 10 16 0.00 0.00
1:52 am 01:52 Clear 61 16.1 47 8.3 60 60 SW 10 17 29.86 1011 10 16 0.00 0.00
2:52 am 02:52 Clear 61 16.1 49 9.4 65 65 SW 12 19 29.85 1011 10 16 0.00 0.00
3:52 am 03:52 Mostly Clear 60 15.6 50 10 70 70 WSW 10 17 29.84 1011 10 16 0.00 0.00
4:52 am 04:52 Mostly Clear 59 15 51 10.6 75 75 WSW 9 15 29.83 1010 10 16 0.00 0.00
5:52 am 05:52 Mostly Cloudy 59 15 51 10.6 75 75 W 8 13 29.84 1011 10 16 0.00 0.00
6:52 am 06:52 Mostly Cloudy 58 14.4 51 10.6 78 78 W 9 15 29.86 1011 10 16 0.00 0.00
7:13 am 07:13 Mostly Cloudy 57 14 52 11 82 82 WNW 9 15 29.88 1012 10 16 0.00 0.00
7:37 am 07:37 Cloudy 59 15 52 11 77 77 NW 20 31 29.91 1013 10 16 0.00 0.00
7:52 am 07:52 Cloudy 58 14.4 52 11.1 81 81 NNW 17 28 29.89 1012 10 16 0.00 0.00
8:31 am 08:31 Mostly Cloudy 54 12 45 7 72 72 N 25 41 29.94 1014 10 16 0.00 0.00
8:52 am 08:52 Mostly Cloudy 53 11.7 42 5.6 66 66 N 24 39 29.95 1014 8 13 0.00 0.00
9:52 am 09:52 Mostly Cloudy 51 10.6 41 5 69 69 N 21 33 30.01 1016 10 16 0.00 0.00
10:00 am 10:00 Mostly Cloudy 52 11 41 5 67 67 N 22 35 30.03 1017 10 16 0.00 0.00
10:52 am 10:52 Cloudy 48 8.9 39 3.9 71 71 NNE 23 37 30.07 1018 10 16 0.00 0.00
11:52 am 11:52 Cloudy 49 9.4 39 3.9 69 69 N 21 33 30.10 1019 10 16 0.00 0.00
12:15 pm 12:15 Mostly Cloudy 52 11 37 3 58 58 N 18 30 30.12 1020 10 16 0.00 0.00
12:52 pm 12:52 Mostly Cloudy 54 12.2 35 1.7 49 49 N 17 28 30.11 1020 10 16 0.00 0.00
1:52 pm 13:52 Mostly Cloudy 53 11.7 29 -1.7 40 40 N 20 31 30.13 1020 10 16 0.00 0.00
2:52 pm 14:52 Partly Cloudy 55 12.8 30 -1.1 38 38 N 16 26 30.12 1020 10 16 0.00 0.00
3:52 pm 15:52 Mostly Cloudy 54 12.2 27 -2.8 35 35 NNW 17 28 30.14 1021 10 16 0.00 0.00
4:52 pm 16:52 Partly Cloudy 53 11.7 27 -2.8 37 37 N 16 26 30.16 1021 10 16 0.00 0.00
5:52 pm 17:52 Partly Cloudy 51 10.6 25 -3.9 36 36 N 17 28 30.17 1022 10 16 0.00 0.00
6:52 pm 18:52 Mostly Sunny 49 9.4 25 -3.9 39 39 NNW 14 22 30.19 1022 10 16 0.00 0.00
7:52 pm 19:52 Mostly Clear 45 7.2 25 -3.9 46 46 N 13 20 30.20 1023 10 16 0.00 0.00
8:52 pm 20:52 Mostly Clear 43 6.1 24 -4.4 47 47 N 12 19 30.23 1024 10 16 0.00 0.00
9:52 pm 21:52 Clear 42 5.6 22 -5.6 45 45 N 10 17 30.25 1024 10 16 0.00 0.00
10:52 pm 22:52 Clear 40 4.4 20 -6.7 45 45 NNW 22 35 30.27 1025 9 14 0.00 0.00
11:52 pm 23:52 Clear 36 2.2 19 -7.2 50 50 N 16 26 30.29 1026 10 16 0.00 0.00

Powered by AerisWeather